Probability
71 81 84 90 94 90 97 97 97 97 97 94 94 87 87 81 77 68 68 61 68 68 71 71 81 74 77 65 52 45 35 23 16 23 16 13 6 6 6 6 6 6 6
65 71 68 81 90 90 90 94 94 90 94 94 90 87 77 65 58 48 45 42 48 58 58 55 48 55 48 39 35 26 23 19 10 10 13 13 10 3 0 0 3 0 0
55 68 71 68 77 81 84 87 87 87 87 81 84 71 65 52 35 26 23 26 26 26 26 29 29 29 26 26 23 16 19 13 0 0 6 6 3 3 0 0 0 0 0
42 52 61 58 58 65 71 77 81 81 81 74 77 68 48 42 32 23 16 13 6 10 10 13 13 10 6 3 3 3 6 0 3 0 0 0 0 0 3 0 0 0 0
19 29 29 32 39 45 61 65 65 58 65 68 65 48 42 32 23 13 10 3 3 3 3 0 0 0 0 0 3 0 0 0 0 0 0 0 0 0 0 0 0 0 0
16 16 19 23 23 26 29 42 39 39 39 42 39 35 29 16 10 6 0 0 0 0 0 0 0 0 0 0 0 0 0 0 0 0 0 0 0 0 0 0 0 0 0
6 10 10 10 16 16 16 13 16 19 19 23 19 19 16 10 6 0 0 0 0 0 0 0 0 0 0 0 0 0 0 0 0 0 0 0 0 0 0 0 0 0 0
10 10 10 10 10 13 10 10 10 10 10 3 6 3 3 0 0 0 0 0 0 0 0 0 0 0 0 0 0 0 0 0 0 0 0 0 0 0 0 0 0 0 0
6 6 6 10 10 6 6 6 6 6 3 0 0 0 0 0 0 0 0 0 0 0 0 0 0 0 0 0 0 0 0 0 0 0 0 0 0 0 0 0 0 0 0
3 3 0 0 0 0 0 0 0 0 0 0 0 0 0 0 0 0 0 0 0 0 0 0 0 0 0 0 0 0 0 0 0 0 0 0 0 0 0 0 0 0 0
0 0 0 0 0 0 0 0 0 0 0 0 0 0 0 0 0 0 0 0 0 0 0 0 0 0 0 0 0 0 0 0 0 0 0 0 0 0 0 0 0 0 0
0 0 0 0 0 0 0 0 0 0 0 0 0 0 0 0 0 0 0 0 0 0 0 0 0 0 0 0 0 0 0 0 0 0 0 0 0 0 0 0 0 0 0
0 0 0 0 0 0 0 0 0 0 0 0 0 0 0 0 0 0 0 0 0 0 0 0 0 0 0 0 0 0 0 0 0 0 0 0 0 0 0 0 0 0 0
0 0 0 0 0 0 0 0 0 0 0 0 0 0 0 0 0 0 0 0 0 0 0 0 0 0 0 0 0 0 0 0 0 0 0 0 0 0 0 0 0 0 0
0 0 0 0 0 0 0 0 0 0 0 0 0 0 0 0 0 0 0 0 0 0 0 0 0 0 0 0 0 0 0 0 0 0 0 0 0 0 0 0 0 0 0
0 0 0 0 0 0 0 0 0 0 0 0 0 0 0 0 0 0 0 0 0 0 0 0 0 0 0 0 0 0 0 0 0 0 0 0 0 0 0 0 0 0 0
0 0 0 0 0 0 0 0 0 0 0 0 0 0 0 0 0 0 0 0 0 0 0 0 0 0 0 0 0 0 0 0 0 0 0 0 0 0 0 0 0 0 0
0 0 0 0 0 0 0 0 0 0 0 0 0 0 0 0 0 0 0 0 0 0 0 0 0 0 0 0 0 0 0 0 0 0 0 0 0 0 0 0 0 0 0
0 0 0 0 0 0 0 0 0 0 0 0 0 0 0 0 0 0 0 0 0 0 0 0 0 0 0 0 0 0 0 0 0 0 0 0 0 0 0 0 0 0 0
0 0 0 0 0 0 0 0 0 0 0 0 0 0 0 0 0 0 0 0 0 0 0 0 0 0 0 0 0 0 0 0 0 0 0 0 0 0 0 0 0 0 0
0 0 0 0 0 0 0 0 0 0 0 0 0 0 0 0 0 0 0 0 0 0 0 0 0 0 0 0 0 0 0 0 0 0 0 0 0 0 0 0 0 0 0
0 0 0 0 0 0 0 0 0 0 0 0 0 0 0 0 0 0 0 0 0 0 0 0 0 0 0 0 0 0 0 0 0 0 0 0 0 0 0 0 0 0 0
0 0 0 0 0 0 0 0 0 0 0 0 0 0 0 0 0 0 0 0 0 0 0 0 0 0 0 0 0 0 0 0 0 0 0 0 0 0 0 0 0 0 0
0 0 0 0 0 0 0 0 0 0 0 0 0 0 0 0 0 0 0 0 0 0 0 0 0 0 0 0 0 0 0 0 0 0 0 0 0 0 0 0 0 0 0
0 0 0 0 0 0 0 0 0 0 0 0 0 0 0 0 0 0 0 0 0 0 0 0 0 0 0 0 0 0 0 0 0 0 0 0 0 0 0 0 0 0 0
0 0 0 0 0 0 0 0 0 0 0 0 0 0 0 0 0 0 0 0 0 0 0 0 0 0 0 0 0 0 0 0 0 0 0 0 0 0 0 0 0 0 0
Height
5851 5854 5857 5859 5861 5863 5864 5866 5866 5867 5867 5867 5868 5868 5867 5867 5866 5866 5865 5865 5864 5863 5861 5860 5859 5858 5857 5856 5855 5854 5853 5851 5850 5849 5848 5847 5845 5844 5843 5841 5840 5838 5837
5846 5849 5852 5854 5856 5858 5859 5861 5861 5862 5862 5862 5862 5862 5862 5861 5861 5860 5859 5858 5857 5856 5855 5853 5852 5850 5849 5848 5847 5846 5845 5844 5843 5841 5839 5838 5837 5836 5834 5833 5831 5830 5828
5841 5844 5846 5849 5851 5853 5854 5855 5856 5856 5856 5857 5857 5857 5857 5855 5854 5853 5851 5851 5849 5849 5847 5845 5844 5843 5842 5841 5839 5838 5837 5836 5834 5832 5831 5829 5828 5826 5825 5823 5822 5820 5819
5836 5838 5841 5843 5845 5847 5849 5850 5850 5851 5851 5851 5851 5851 5850 5848 5847 5845 5844 5843 5842 5841 5839 5837 5836 5835 5834 5832 5832 5831 5829 5827 5826 5824 5822 5820 5818 5817 5815 5814 5812 5810 5808
5830 5833 5835 5837 5839 5841 5843 5844 5845 5845 5845 5845 5845 5844 5842 5841 5839 5838 5837 5836 5834 5833 5831 5830 5828 5827 5826 5825 5825 5823 5821 5819 5817 5815 5813 5811 5809 5807 5805 5803 5801 5799 5797
5824 5826 5829 5831 5833 5835 5837 5838 5839 5839 5839 5839 5838 5837 5835 5833 5832 5831 5829 5828 5826 5825 5823 5822 5820 5820 5819 5817 5815 5813 5812 5810 5808 5806 5804 5802 5800 5797 5794 5792 5789 5786 5783
5818 5820 5823 5825 5827 5829 5830 5831 5832 5833 5833 5832 5831 5830 5828 5827 5824 5823 5822 5820 5818 5817 5815 5814 5813 5812 5811 5809 5807 5805 5803 5801 5799 5796 5794 5792 5789 5786 5783 5779 5776 5772 5768
5813 5815 5817 5819 5820 5822 5823 5824 5825 5825 5825 5825 5824 5822 5821 5819 5817 5816 5815 5812 5810 5809 5808 5806 5805 5803 5802 5800 5798 5796 5793 5791 5788 5786 5783 5780 5777 5773 5770 5766 5761 5757 5752
5807 5809 5810 5812 5814 5815 5816 5817 5817 5817 5817 5816 5816 5815 5813 5812 5810 5808 5806 5804 5802 5801 5799 5797 5796 5794 5792 5790 5788 5785 5783 5780 5777 5774 5771 5768 5764 5760 5755 5751 5746 5742 5736
5801 5802 5804 5805 5807 5808 5808 5809 5809 5809 5809 5808 5807 5806 5805 5803 5802 5799 5797 5795 5793 5792 5790 5788 5786 5784 5782 5779 5777 5774 5771 5768 5765 5761 5758 5753 5749 5745 5740 5735 5730 5724 5719
5794 5795 5797 5798 5799 5799 5800 5800 5800 5800 5800 5799 5798 5797 5796 5794 5792 5790 5788 5786 5784 5783 5781 5779 5776 5774 5771 5768 5765 5762 5759 5755 5751 5747 5743 5739 5734 5729 5723 5718 5712 5706 5701
5786 5788 5789 5790 5790 5791 5791 5791 5791 5791 5790 5790 5788 5787 5786 5784 5783 5780 5778 5776 5775 5772 5770 5768 5766 5763 5760 5757 5754 5750 5746 5742 5738 5733 5728 5723 5717 5712 5706 5700 5694 5689 5683
5779 5780 5781 5781 5782 5782 5782 5782 5782 5781 5781 5780 5779 5777 5776 5774 5773 5770 5769 5767 5765 5762 5760 5757 5754 5751 5748 5745 5741 5737 5732 5727 5722 5717 5712 5706 5701 5695 5689 5683 5677 5672 5666
5771 5772 5773 5773 5773 5773 5773 5773 5772 5772 5771 5770 5769 5767 5766 5765 5763 5761 5759 5756 5754 5752 5750 5747 5744 5740 5737 5733 5728 5724 5718 5713 5708 5702 5696 5690 5684 5678 5672 5667 5661 5656 5650
5764 5764 5764 5765 5765 5764 5764 5764 5763 5762 5761 5760 5759 5758 5756 5755 5753 5751 5749 5747 5745 5742 5739 5736 5733 5729 5725 5721 5716 5711 5706 5700 5694 5688 5682 5675 5669 5663 5657 5652 5646 5641 5637
5756 5756 5756 5756 5756 5755 5755 5755 5754 5753 5752 5751 5750 5749 5747 5745 5744 5741 5739 5738 5735 5732 5729 5726 5722 5719 5714 5710 5705 5700 5694 5688 5681 5675 5668 5662 5656 5650 5644 5639 5634 5629 5625
5748 5748 5748 5748 5748 5747 5747 5746 5746 5745 5744 5742 5741 5740 5738 5737 5735 5733 5731 5728 5726 5723 5720 5717 5713 5709 5705 5700 5695 5689 5683 5676 5670 5663 5657 5650 5644 5639 5634 5629 5624 5621 5617
5741 5741 5741 5741 5740 5740 5739 5738 5738 5737 5736 5734 5733 5732 5730 5728 5726 5724 5722 5720 5717 5714 5711 5708 5704 5700 5695 5690 5685 5679 5673 5666 5660 5653 5647 5641 5635 5630 5625 5621 5618 5614 5611
5734 5734 5734 5734 5733 5732 5732 5731 5730 5729 5728 5727 5726 5724 5722 5720 5718 5716 5714 5712 5709 5706 5703 5700 5696 5691 5687 5681 5676 5670 5664 5658 5652 5646 5640 5634 5629 5625 5621 5617 5614 5611 5608
5727 5727 5727 5726 5726 5725 5724 5724 5723 5722 5721 5720 5718 5716 5715 5713 5711 5709 5706 5704 5701 5699 5695 5692 5688 5683 5679 5674 5668 5663 5658 5652 5647 5641 5635 5630 5626 5622 5618 5615 5612 5609 5606
5721 5721 5721 5720 5719 5719 5718 5717 5716 5715 5714 5713 5711 5709 5708 5706 5704 5702 5699 5697 5694 5692 5688 5685 5681 5676 5672 5667 5662 5657 5652 5647 5642 5637 5633 5628 5624 5621 5617 5614 5611 5608 5605
5716 5716 5715 5715 5714 5713 5712 5711 5710 5709 5708 5706 5705 5703 5701 5699 5697 5695 5693 5690 5688 5685 5682 5678 5674 5670 5665 5661 5657 5652 5648 5644 5639 5635 5631 5627 5624 5620 5617 5614 5611 5608 5605
5712 5711 5710 5709 5708 5707 5706 5705 5704 5703 5701 5700 5698 5697 5695 5693 5691 5689 5687 5684 5682 5679 5675 5672 5668 5664 5660 5656 5653 5649 5645 5641 5638 5634 5631 5627 5624 5620 5617 5614 5611 5607 5604
5707 5706 5706 5704 5703 5702 5701 5700 5699 5697 5696 5694 5693 5691 5689 5687 5686 5684 5681 5679 5676 5673 5670 5667 5664 5660 5657 5653 5650 5646 5644 5640 5637 5634 5631 5627 5624 5621 5617 5614 5611 5608 5604
5703 5702 5701 5700 5699 5698 5697 5695 5694 5692 5691 5689 5688 5686 5684 5682 5680 5678 5676 5674 5671 5669 5666 5663 5660 5657 5654 5651 5648 5645 5642 5639 5637 5634 5631 5628 5624 5621 5618 5615 5612 5608 5604
5700 5699 5698 5696 5695 5694 5692 5691 5689 5688 5686 5685 5683 5681 5679 5677 5675 5673 5672 5669 5667 5665 5663 5660 5658 5655 5652 5649 5647 5644 5642 5639 5637 5634 5631 5628 5625 5622 5618 5615 5612 5608 5604
Wind_Speed
28 27 26 27 26 25 24 24 24 24 24 24 25 25 25 27 28 29 30 31 32 32 33 33 33 33 33 33 34 35 33 34 35 35 34 34 33 31 30 31 31 32 33
28 28 28 28 27 27 27 27 28 29 28 28 28 29 29 29 29 31 33 34 34 35 35 35 35 35 35 35 35 35 35 34 35 37 37 36 35 33 33 34 34 34 35
28 28 29 30 29 29 29 30 30 30 31 31 31 32 32 32 32 32 33 34 34 35 34 31 32 34 34 34 35 34 35 35 35 36 37 38 37 36 36 37 37 37 39
28 29 30 31 32 31 31 31 31 31 32 32 33 34 35 35 35 35 36 36 36 35 35 33 32 32 32 32 33 34 34 35 35 36 37 38 38 39 38 38 40 41 42
29 29 30 31 32 32 32 32 31 32 33 33 35 36 36 36 36 37 38 38 36 34 33 34 34 33 33 33 34 34 34 35 36 37 38 38 39 40 41 43 43 44 46
28 29 29 30 33 33 33 33 33 34 35 36 36 37 38 38 39 40 39 36 34 34 34 33 33 33 33 34 34 35 35 36 36 37 38 39 41 43 44 46 48 48 49
27 28 29 30 32 34 35 35 35 36 37 38 38 39 40 40 40 40 38 36 35 34 33 33 33 33 33 33 34 35 36 37 38 38 40 41 43 44 46 49 51 52 53
27 28 29 30 32 33 35 36 36 36 38 39 40 41 42 42 42 40 38 37 35 34 33 34 34 34 35 36 36 36 37 38 40 42 44 44 45 48 50 52 54 56 57
27 29 29 30 31 33 35 36 37 38 39 40 41 42 43 43 43 41 39 37 36 36 36 36 36 37 37 37 38 39 40 41 43 45 46 48 50 52 54 55 57 59 61
28 29 30 31 32 33 34 36 37 39 40 41 42 42 43 43 42 42 40 38 37 36 37 38 38 39 40 40 41 43 42 44 46 48 49 51 53 55 57 58 60 62 63
30 31 31 31 32 33 35 36 37 39 39 39 39 40 42 42 41 41 40 40 39 39 39 40 40 40 41 42 43 44 45 47 49 51 53 54 56 57 59 60 61 61 62
30 31 32 32 33 34 35 36 37 38 38 39 39 40 40 39 39 39 39 39 39 39 41 41 42 43 43 44 45 46 48 49 51 53 55 56 57 57 58 58 58 59 59
30 31 32 32 33 33 34 35 36 37 37 38 38 39 39 38 38 38 39 39 39 39 40 41 41 43 43 45 47 47 49 50 52 54 55 57 58 58 57 57 57 57 56
29 30 31 32 32 33 33 35 36 37 37 39 39 40 39 39 39 39 38 38 38 39 40 42 42 43 43 45 46 47 49 50 52 53 54 54 54 54 54 53 53 52 51
27 28 29 30 31 32 32 33 34 35 36 37 38 37 38 38 38 38 38 39 39 40 41 41 42 42 43 44 44 45 46 48 49 49 50 50 50 50 50 49 48 47 45
27 27 28 28 28 29 29 30 31 31 32 33 34 35 35 36 36 37 36 37 38 39 39 39 39 40 40 41 42 43 44 45 46 46 46 46 45 45 44 42 41 39 36
26 26 26 26 27 27 28 29 29 30 31 31 31 32 33 34 34 34 35 35 35 35 36 37 37 38 39 40 41 42 43 43 43 42 41 40 39 38 36 34 32 30 29
23 23 24 24 25 26 27 27 28 28 28 29 29 29 30 31 31 32 33 33 33 33 34 35 35 36 37 38 38 39 39 39 38 36 35 34 32 30 28 25 23 21 20
23 22 24 24 25 25 25 26 26 26 27 27 28 28 29 29 29 29 30 30 30 31 31 32 32 33 34 35 35 35 34 32 31 29 28 26 24 21 20 19 18 17 16
21 22 22 22 23 24 24 25 25 26 26 27 27 27 27 27 27 27 27 27 27 28 29 29 30 31 31 31 30 29 28 27 25 24 23 20 19 17 16 15 15 14 14
20 21 21 21 22 23 24 24 24 24 24 24 24 25 25 25 25 25 25 25 26 26 26 27 28 28 28 27 26 25 24 23 21 20 18 17 16 15 14 14 13 13 13
19 20 21 21 22 22 22 22 22 22 22 22 23 23 23 23 23 22 22 23 24 24 24 25 25 24 24 24 23 22 20 19 17 16 15 14 14 13 13 13 13 13 13
17 18 19 18 18 19 19 19 19 20 21 21 21 21 21 21 21 21 21 22 22 22 22 22 22 22 21 20 19 18 17 15 14 13 13 13 12 12 12 13 13 14 14
14 15 16 16 16 16 17 17 18 19 19 19 19 19 19 19 19 19 20 20 20 20 19 19 19 18 17 17 16 15 14 12 11 11 11 11 11 12 13 13 14 15 15
12 13 13 14 15 15 16 17 17 17 17 17 17 17 17 18 18 18 18 18 18 17 16 16 16 15 15 14 13 11 10 10 9 10 11 11 12 12 13 13 14 15 15
12 12 13 14 14 15 15 15 15 15 15 15 16 16 16 16 16 16 16 15 15 14 13 13 13 12 12 11 10 9 8 8 9 10 11 11 12 12 13 14 14 15 15
Wind_Direction
234 233 236 237 238 241 243 244 246 248 249 248 248 250 251 254 258 261 264 265 266 266 267 268 269 271 271 271 271 271 271 274 274 276 277 277 276 276 278 278 278 276 275
237 236 237 240 239 243 244 244 247 249 249 251 251 253 255 257 263 268 267 267 268 269 269 272 272 275 274 272 276 276 276 278 279 278 278 277 275 274 275 277 277 276 277
237 236 238 242 242 244 245 246 248 251 253 255 259 262 265 265 267 271 272 273 274 275 274 277 278 278 278 277 278 281 279 278 282 280 279 278 277 275 276 276 276 275 276
239 239 241 244 244 244 244 246 250 255 260 262 264 267 270 272 272 274 274 273 273 277 277 278 280 281 282 283 283 284 283 282 282 281 281 282 280 277 276 277 277 276 275
241 241 242 244 244 246 247 249 252 257 262 265 268 270 272 274 275 277 278 278 279 280 282 281 282 283 283 284 283 284 284 282 283 284 282 282 282 281 279 279 279 278 277
242 242 243 242 243 244 247 250 254 259 263 266 271 274 276 279 279 282 285 282 281 283 285 285 285 284 284 285 283 284 285 285 284 284 284 284 282 282 280 280 280 279 279
243 243 243 243 244 245 248 252 256 259 264 267 271 275 278 281 284 285 286 287 285 285 286 287 287 286 286 286 286 286 286 283 282 284 284 284 283 283 282 281 281 280 280
243 244 245 246 246 248 251 255 259 262 265 269 272 275 279 283 286 288 289 291 290 289 286 288 290 291 290 289 287 285 284 283 283 286 285 283 282 283 283 282 281 281 281
244 245 247 249 250 252 255 258 262 266 269 272 275 278 280 283 285 286 288 289 288 288 288 287 290 290 289 287 284 283 284 285 285 285 285 284 285 284 284 284 283 283 282
248 249 251 253 255 256 258 261 264 268 270 272 274 276 279 282 284 285 286 287 288 289 286 285 288 288 286 284 283 283 283 284 284 284 284 285 285 285 284 284 283 282 282
251 253 256 258 260 261 262 265 266 268 271 273 274 276 278 280 282 283 284 286 286 286 284 283 284 284 283 283 283 283 284 284 284 283 285 286 286 286 285 285 284 284 283
255 257 259 261 263 264 265 266 268 270 271 273 275 276 278 279 280 282 284 285 285 284 283 281 281 282 282 282 284 284 284 285 285 286 287 288 288 287 286 286 285 285 285
258 259 260 263 264 266 267 267 268 269 270 272 273 275 276 277 278 281 283 283 282 281 280 280 281 283 284 285 285 286 287 288 289 289 289 289 289 288 288 287 287 287 287
261 262 263 264 265 266 267 267 267 269 270 271 273 274 275 276 277 279 280 281 281 282 282 283 284 285 286 288 289 290 291 291 291 292 292 291 291 291 290 290 289 289 289
263 265 265 266 266 267 267 267 268 268 269 271 273 273 274 276 278 278 280 281 282 283 284 286 288 289 291 293 293 294 294 295 295 296 296 295 294 293 293 292 292 291 291
264 266 265 266 266 266 267 268 269 271 271 271 272 274 275 277 278 278 281 283 285 286 287 290 292 294 295 297 298 299 300 300 300 300 299 298 297 297 296 295 295 295 294
265 265 265 267 267 268 267 267 270 273 273 274 275 275 276 278 279 281 283 286 287 289 291 293 295 297 299 300 301 303 303 303 303 303 302 302 302 301 300 301 299 299 297
266 268 267 267 266 267 267 268 271 273 274 274 275 277 278 280 282 284 286 289 292 293 295 297 298 300 302 304 305 306 307 308 308 307 307 307 307 307 308 309 309 308 306
266 267 266 265 264 264 267 270 272 274 277 280 282 283 284 286 288 289 292 294 295 296 298 300 302 305 307 308 309 310 311 312 314 316 317 317 316 316 318 319 320 319 317
264 265 266 265 267 271 275 276 276 278 280 282 284 286 287 289 291 292 294 295 296 298 301 304 306 308 310 312 313 314 315 317 319 322 324 326 327 329 331 331 331 330 327
267 268 267 271 275 276 278 279 279 280 282 283 285 287 288 290 292 293 295 297 299 301 304 306 308 311 313 315 316 317 318 320 324 327 331 334 337 339 341 342 342 340 338
267 268 268 271 274 276 277 278 280 281 283 285 286 287 290 291 293 295 297 299 302 304 306 309 312 314 315 317 319 321 323 324 328 332 337 339 342 344 347 349 349 349 348
272 274 275 275 275 276 278 280 282 285 287 288 288 290 292 293 295 297 299 302 305 306 308 310 313 316 317 320 322 324 326 328 332 338 342 346 350 352 354 356 357 357 356
283 281 279 278 279 281 283 285 287 289 290 291 291 293 293 294 296 298 301 303 305 307 310 312 314 317 320 323 325 326 328 331 338 346 352 355 357 0 3 4 2 0 359
291 288 287 287 287 288 290 291 292 292 292 293 294 294 295 295 297 299 300 303 306 308 312 314 315 319 323 327 329 331 334 340 349 356 360 1 3 5 5 3 0 359 358
301 298 296 296 296 295 294 294 294 294 294 295 296 296 297 297 298 300 301 304 307 310 313 317 320 322 328 335 341 344 348 354 359 1 2 4 4 3 2 1 360 360 1